SCP
0 0 0 0 0 0 0 0 0 0 0 0 0 0 0 0 0 0 0 0 0 0 0 0 0 0 0 0 0 0 0 0 0 0 0 1 1 1
0 0 0 0 0 0 0 0 0 0 0 0 0 0 0 0 0 0 0 0 0 0 0 0 0 0 0 0 0 0 0 0 0 0 0 0 1 1
0 0 0 0 0 0 0 0 0 0 0 0 0 0 0 0 0 0 0 0 0 0 0 0 0 0 0 0 0 0 0 0 0 0 0 0 0 1
0 0 0 0 0 0 0 0 0 0 0 0 0 0 0 0 0 0 0 0 0 0 0 0 0 0 0 0 0 0 0 0 0 0 0 0 0 0
0 0 0 0 0 0 0 0 0 0 0 0 0 0 0 0 0 0 0 0 0 0 0 0 0 0 0 0 0 0 0 0 0 0 0 0 0 0
0 0 0 0 0 0 0 0 0 0 0 0 0 0 0 0 0 0 0 0 0 0 0 0 0 0 0 0 0 0 0 0 0 0 0 0 0 0
0 0 0 0 0 0 0 0 0 0 0 0 0 0 0 0 0 0 0 0 0 0 0 0 0 0 0 0 0 0 0 0 0 0 0 0 0 0
0 0 0 0 0 0 0 0 0 0 0 0 0 0 0 0 0 0 0 0 0 0 0 0 0 0 0 0 0 0 0 0 0 0 0 0 0 0
0 0 0 0 0 0 0 0 0 0 0 0 0 0 0 0 0 0 0 0 0 0 0 0 0 0 0 0 0 0 0 0 0 0 0 0 0 0
0 0 0 0 0 0 0 0 0 0 0 0 0 0 0 0 0 0 0 0 0 0 0 0 0 0 0 0 0 0 0 0 0 0 0 0 0 0
0 0 0 0 0 0 0 0 0 0 0 0 0 0 0 0 0 0 0 0 0 0 0 0 0 0 0 0 0 0 0 0 0 0 0 0 0 0
0 0 0 0 0 0 0 0 0 0 0 0 0 0 0 0 0 0 0 0 0 0 0 0 0 0 0 0 0 0 0 0 0 0 0 0 0 0
0 0 0 0 0 0 0 0 0 0 0 0 0 0 0 0 0 0 0 0 0 0 0 0 0 0 0 0 0 0 0 0 0 0 0 0 0 0
0 0 0 0 0 0 0 0 0 0 0 0 0 0 0 0 0 0 0 0 0 0 0 0 0 0 0 0 0 0 0 0 0 0 0 0 0 0
0 0 0 0 0 0 0 0 0 0 0 0 0 0 0 0 0 0 0 0 0 0 0 0 0 0 0 0 0 0 0 0 0 0 0 0 0 0
0 0 0 0 0 0 0 0 0 0 0 0 0 0 0 0 0 0 0 0 0 0 0 0 0 0 0 0 0 0 0 0 0 0 0 0 0 0
0 0 0 0 0 0 0 0 0 0 0 0 0 0 0 0 0 0 0 0 0 0 0 0 0 0 0 0 0 0 0 0 0 0 0 0 0 0
0 0 0 0 0 0 0 0 0 0 0 0 0 0 0 0 0 0 0 0 0 0 0 0 0 0 0 0 0 0 0 0 0 0 0 0 0 0
0 0 0 0 0 0 0 0 0 0 0 0 0 0 0 0 0 0 0 0 0 0 0 0 0 0 0 0 0 0 0 0 0 0 0 0 0 0
0 0 0 0 0 0 0 0 0 0 0 0 0 0 0 0 0 0 0 0 0 0 0 0 0 0 0 0 0 0 0 0 0 0 0 0 0 0
0 0 0 0 0 0 0 0 0 0 0 0 0 0 0 0 0 0 0 0 0 0 0 0 0 0 0 0 0 0 0 0 0 0 0 0 0 0
0 0 0 0 0 0 0 0 0 0 0 0 0 0 0 0 0 0 0 0 0 0 0 0 0 0 0 0 0 0 0 0 0 0 0 0 0 0
0 0 0 0 0 0 0 0 0 0 0 0 0 0 0 0 0 0 0 0 0 0 0 0 0 0 0 0 0 0 0 0 0 0 0 0 0 0
Wind_Speed
8 8 8 9 10 9 11 12 13 11 14 18 14 15 9 8 8 8 7 10 7 7 9 10 13 16 15 16 14 13 11 10 8 10 11 13 19 25
10 11 12 10 9 9 9 9 13 13 14 17 14 12 11 9 11 12 11 15 11 12 12 10 13 15 15 16 16 14 13 13 11 10 9 10 12 15
11 13 15 15 12 11 11 10 10 12 16 14 14 12 14 12 12 12 11 9 8 13 13 11 12 13 12 10 15 16 14 13 13 13 13 12 12 12
14 16 16 16 14 13 12 13 12 11 15 16 15 14 13 14 13 13 10 9 9 9 6 8 10 11 10 6 6 7 8 9 10 12 14 15 15 14
15 16 15 18 16 15 14 13 13 11 12 13 15 14 12 12 13 10 8 10 9 10 7 9 12 12 11 9 9 9 8 8 10 12 14 16 16 15
12 13 14 14 16 15 14 15 13 13 11 12 14 13 13 11 9 9 10 9 7 5 7 9 10 11 12 11 11 11 10 11 13 15 16 17 17 16
14 15 14 17 20 18 15 15 14 12 11 11 13 13 10 10 10 8 11 9 8 5 6 7 7 8 9 12 12 8 9 12 15 18 19 20 20 20
15 15 14 16 19 19 17 19 18 17 16 14 13 13 13 11 11 6 7 9 7 5 5 5 5 5 5 4 5 9 15 20 23 24 25 25 24 23
14 13 13 13 14 13 15 17 19 20 21 17 16 18 16 14 10 8 8 10 7 4 5 4 4 4 4 1 5 12 19 24 28 30 32 32 28 25
12 12 12 13 14 14 14 14 14 16 17 15 15 14 12 11 10 10 10 8 2 2 3 2 4 3 1 2 8 16 22 24 23 25 28 30 29 25
11 11 12 11 13 15 14 14 15 14 14 16 16 16 18 20 16 9 6 4 3 3 3 2 1 1 1 3 7 16 21 18 11 9 19 24 25 21
11 11 15 15 16 16 13 13 14 14 10 7 7 8 9 9 6 7 4 3 2 2 4 2 1 1 0 2 4 7 10 16 16 15 17 22 22 13
11 9 9 14 15 15 13 11 12 12 10 6 3 3 4 4 4 4 3 1 0 0 2 2 1 2 1 1 3 6 7 9 9 10 14 17 16 13
11 10 11 14 15 14 11 11 12 8 1 2 2 3 3 4 4 5 5 5 5 4 2 2 1 2 3 1 2 4 5 7 7 7 9 17 20 20
12 16 14 14 14 11 10 8 5 3 4 4 3 4 3 2 3 5 7 7 8 8 7 6 5 6 5 3 2 4 5 9 8 7 8 8 8 10
13 13 13 11 11 10 9 7 6 5 4 4 3 3 3 5 6 4 4 5 7 8 10 11 10 9 8 7 6 7 8 6 7 8 9 11 10 8
12 8 8 8 7 6 5 5 5 4 4 4 4 4 5 7 6 6 6 6 7 7 8 9 12 13 13 10 10 10 9 9 8 8 10 12 11 10
9 7 7 8 7 6 5 5 6 5 5 5 5 5 6 6 5 7 7 6 7 7 6 6 8 9 11 17 17 10 10 9 9 10 11 13 12 11
8 8 8 8 7 7 6 5 5 5 5 4 4 5 5 4 5 6 8 8 8 9 9 8 9 9 11 12 13 16 11 10 11 11 11 12 12 10
8 8 8 8 7 6 6 5 6 6 5 5 6 6 3 2 4 6 8 10 9 11 11 12 12 11 11 12 11 13 16 12 12 12 12 12 14 17
8 7 8 8 8 6 5 5 6 6 6 7 6 4 3 5 8 10 11 12 11 13 12 10 10 11 12 12 12 12 15 16 14 10 11 11 12 12
8 7 7 8 7 7 6 6 6 6 6 5 5 4 4 6 9 9 9 10 9 10 13 11 9 8 11 13 12 13 13 13 18 23 21 16 12 14
8 7 7 7 7 8 6 6 7 6 4 3 5 6 7 8 8 8 9 9 8 9 11 11 8 9 11 13 12 12 15 13 13 15 18 25 29 29
Wind_Direction
285 275 277 295 303 311 308 305 303 295 288 291 294 290 300 295 298 296 279 273 264 249 253 268 277 280 276 267 261 265 267 273 269 267 262 255 231 221
287 296 291 286 286 287 279 286 293 289 279 280 284 291 290 290 291 275 257 255 245 238 235 246 266 273 277 264 250 246 246 259 265 267 263 262 258 237
268 272 277 285 289 298 293 288 283 285 286 283 281 272 269 285 280 281 282 276 271 254 232 241 253 267 271 270 248 235 235 248 256 259 260 258 257 252
287 290 295 288 291 290 291 285 284 283 282 282 279 281 287 279 275 269 268 268 266 271 279 244 236 257 261 255 262 255 255 262 265 265 262 257 251 246
301 299 293 289 291 291 289 289 289 286 282 287 281 273 268 264 267 268 293 286 290 296 269 221 233 243 249 248 246 247 249 258 265 266 268 269 262 253
298 291 285 284 283 285 288 289 285 282 283 285 284 281 280 276 273 275 286 284 291 275 243 236 237 242 241 239 240 244 248 249 251 252 250 252 257 260
300 294 293 299 300 290 280 281 286 285 281 278 278 277 279 286 283 294 295 302 287 236 224 225 227 234 227 223 228 244 270 269 262 255 250 243 240 242
307 304 299 294 290 284 280 277 276 280 283 282 287 287 286 289 293 292 282 280 266 210 213 219 216 238 248 256 326 313 291 278 267 258 248 240 232 228
296 299 302 298 298 299 294 290 284 279 275 273 272 273 277 281 291 276 260 263 256 187 200 214 203 240 224 263 314 302 293 281 269 256 243 231 221 215
302 301 300 296 297 297 295 289 282 276 270 265 264 271 282 283 266 257 256 261 234 158 197 221 201 232 36 338 329 319 307 294 274 250 230 217 206 199
312 308 298 287 283 281 282 281 278 276 263 252 261 271 273 269 257 245 232 206 192 176 172 225 167 331 316 350 330 326 326 327 321 266 206 191 178 173
310 303 302 296 290 287 287 286 285 290 300 301 285 278 287 295 254 218 211 198 185 191 174 194 155 146 325 26 334 344 342 358 20 54 104 131 139 150
307 309 301 305 307 301 293 289 292 300 298 295 307 328 328 355 41 60 56 40 194 174 170 184 243 169 150 349 348 4 5 6 15 48 76 99 113 117
308 314 330 333 323 313 303 294 293 296 343 35 27 14 10 31 51 66 68 67 62 67 80 148 179 93 100 58 7 360 19 26 29 42 61 72 82 92
315 317 331 340 331 326 334 344 356 37 60 53 41 29 16 40 92 76 67 67 56 49 50 63 77 80 78 69 55 27 41 35 33 45 56 64 80 96
323 325 340 345 343 349 2 18 35 58 62 56 48 32 24 50 53 65 74 60 62 55 52 60 71 77 73 70 71 62 55 58 43 50 62 61 55 60
324 340 351 354 358 8 17 25 37 46 50 51 47 40 47 50 40 51 65 65 70 71 64 62 70 72 69 62 67 64 64 64 57 67 71 69 56 55
340 352 350 350 353 4 26 36 40 45 50 50 44 41 58 59 69 92 98 88 80 74 72 72 77 79 73 57 51 60 62 67 64 62 66 77 67 56
358 350 347 350 0 15 35 40 39 48 61 55 65 70 70 79 95 87 77 74 79 75 65 58 59 65 72 70 46 41 62 67 66 65 63 68 75 74
358 349 344 347 358 18 24 31 41 48 43 43 62 76 73 74 69 85 84 88 82 74 70 72 73 65 70 82 82 61 46 62 68 72 74 78 83 83
351 349 346 345 350 4 18 44 55 52 42 43 59 71 38 65 79 79 78 77 87 93 91 87 93 101 100 94 85 79 71 69 77 92 105 103 104 104
352 350 347 346 349 355 12 36 70 66 51 46 58 59 57 64 76 83 87 87 85 91 95 102 109 101 92 89 87 91 89 80 65 54 56 76 104 113
353 352 350 350 351 354 13 46 53 45 46 47 43 41 54 67 77 76 81 88 94 95 100 105 101 100 98 101 101 97 96 92 80 66 56 61 73 84